Overview Statistics Trail Chart Weather Telemetry Raw packets
 

This is the latest recevied weather packets stored in our database for station/object KI4NG. If no packets are shown the sender has not sent any weather packets the latest 10 day(s).

<< 1 2 3 4 5 6 7 >>
Time Temp. Humidity Pressure Rain* Wind** Luminosity Snow
1788612783 22.78° C 96% 1018.2 hPa 0 mm - 94 W/m² -
1788612479 22.22° C 96% 1018.1 hPa 0 mm - 88 W/m² -
1788612175 22.22° C 97% 1018.2 hPa 0 mm - 79 W/m² -
1788611870 22.22° C 97% 1018.1 hPa 0 mm - 63 W/m² -
1788611567 22.22° C 97% 1017.8 hPa 0 mm - 54 W/m² -
1788611266 22.22° C 97% 1017.8 hPa 0 mm - 52 W/m² -
1788610960 21.67° C 98% 1017.9 hPa 0 mm - 50 W/m² -
1788610656 21.67° C 98% 1017.9 hPa 0 mm - 46 W/m² -
1788610352 21.67° C 98% 1018.1 hPa 0 mm - 46 W/m² -
1788610050 21.67° C 98% 1017.9 hPa 0 mm - 41 W/m² -
1788609745 21.67° C 99% 1017.9 hPa 0 mm - 34 W/m² -
1788609440 21.67° C 99% 1017.6 hPa 0 mm - 28 W/m² -
1788609140 21.67° C 99% 1017.7 hPa 0 mm - 24 W/m² -
1788608835 21.67° C 99% 1017.5 hPa 0 mm - 21 W/m² -
1788608533 21.67° C 98% 1017.5 hPa 0 mm - 18 W/m² -
1788608233 21.67° C 98% 1017.5 hPa 0 mm - 16 W/m² -
1788607929 21.67° C 99% 1017.5 hPa 0 mm - 12 W/m² -
1788607660 21.67° C 99% 1017.6 hPa 0 mm - 10 W/m² -
1788607324 21.67° C 99% 1017.4 hPa 0 mm - 6 W/m² -
1788607024 21.67° C 98% 1017.3 hPa 0 mm - 3 W/m² -
1788606723 21.67° C 98% 1017.1 hPa 0 mm - 1 W/m² -
1788606423 21.67° C 98% 1017.1 hPa 0 mm - 0 W/m² -
1788606117 21.67° C 98% 1017.2 hPa 0 mm - 0 W/m² -
1788605813 21.67° C 98% 1016.9 hPa 0 mm - 0 W/m² -
1788605511 21.67° C 97% 1016.8 hPa 0 mm - 0 W/m² -

* Rain latest hour (hover to see other rain measurements)
** Current wind speed in m/s (hover to see current wind gust speed)